Skip Page Navigation
NASA JPL Caltech
NASA Logo - Jet Propulsion Laboratory + View the NASA Portal
+ Near-Earth Object (NEO) Program
Search JPL
JPL Home Earth Solar System Stars & Galaxies Technology
JPL Solar System Dynamics
BODIES ORBITS EPHEMERIDES TOOLS PHYSICAL DATA DISCOVERY FAQ SITE MAP
JPL Small-Body Database Browser
Search: [ help ]  
109 Felicitas
Classification: Main-belt Asteroid          SPK-ID: 2000109
Ephemeris | Orbit Diagram | Orbital Elements | Physical Parameters | Discovery Circumstances | Close-Approach Data ]

[ show orbit diagram ]
Orbital Elements at Epoch 2457000.5 (2014-Dec-09.0) TDB
Reference: JPL 10 (heliocentric ecliptic J2000)
 Element Value Uncertainty (1-sigma)   Units 
e .2970251329385484 4.8676e-08  
a 2.69745067821062 7.1132e-09 AU
q 1.896240031919933 1.3046e-07 AU
i 7.880756504989033 5.6492e-06 deg
node 3.166947023918784 3.745e-05 deg
peri 56.37832948897984 3.8529e-05 deg
M 257.2140119795436 7.6987e-06 deg
tp 2457462.519291454058
(2016-Mar-15.01929145)
3.5591e-05 JED
period 1618.186954532737
4.43
6.4007e-06
1.752e-08
d
yr
n .2224712039555111 8.7998e-10 deg/d
Q 3.498661324501307 9.2259e-09 AU
  Orbit Determination Parameters
   # obs. used (total)      1066  
   data-arc span      52903 days (144.84 yr)  
   first obs. used      1869-10-10  
   last obs. used      2014-08-14  
   planetary ephem.      DE431  
   SB-pert. ephem.      SB431-BIG16  
   condition code      0  
   fit RMS      .56135  
   data source      ORB  
   producer      Otto Matic  
   solution date      2014-Sep-12 13:33:45  

Additional Information
 Earth MOID = .920899 AU 
 T_jup = 3.291 
[ show covariance matrix ]

Ephemeris | Orbit Diagram | Orbital Elements | Physical Parameters | Discovery Circumstances | Close-Approach Data ]

Physical Parameter Table
Parameter Symbol Value Units Sigma Reference Notes
absolute magnitude H 8.75 mag n/a IRAS-A-FPA-3-RDR-IMPS-V6.0 IRAS observations used: 15
magnitude slope G 0.04   n/a PDS3 (MPC 17257) Fit
diameter diameter 89.44 km 2.5 IRAS-A-FPA-3-RDR-IMPS-V6.0 IRAS observations used: 15
rotation period rot_per 13.191 h n/a Asteroid Lightcurve DataBase (Rev. 2014-Mar-01) Published Reference List:
[Harris, A.W.; Young, J.W. (1989) Icarus 81, 314-364.]
geometric albedo albedo 0.0699   0.004 IRAS-A-FPA-3-RDR-IMPS-V6.0 IRAS observations used: 15
B-V BV .696 mag .010 EAR-A-5-DDR-UBV-MEAN-VALUES-V1.1 #obs=4; phase (min.=8.46, mean=12.89, max.=24.09) deg.
U-B UB .408 mag .019 EAR-A-5-DDR-UBV-MEAN-VALUES-V1.1 #obs=5; phase (min.=8.46, mean=15.54, max.=26.17) deg.
Tholen spectral type spec_T GC   n/a EAR-A-5-DDR-TAXONOMY-V4.0 used 7 color indices; used ground-based radiometric albedo
SMASSII spectral type spec_B Ch   n/a EAR-A-5-DDR-TAXONOMY-V4.0 based on a high-resolution spectrum by Xu et al. (1995) or Bus and Binzel (2002)

109 Felicitas          Discovered 1869-Oct-09 by Peters, C. H. F. at Clinton
Reference: DISCOVERY.DBLast Updated: 2003-08-29

[ show close-approach data ]
Alternate Designations
 A911 HA 
Ephemeris | Orbit Diagram | Orbital Elements | Physical Parameters | Discovery Circumstances | Close-Approach Data ]
ABOUT SSD CREDITS/AWARDS PRIVACY/COPYRIGHT GLOSSARY LINKS
FirstGov 2014-Sep-16 13:26 UT
(server date/time)  
NASA Home Page
Site Manager:   Donald K. Yeomans
Webmaster  Alan B. Chamberlin